Curacao, Curacao

7:22 AM AST on June 19, 2018 (GMT -0400)
Willemstad-Hato International

Weather History for TNCC - June, 2018

Change the Weather History Date:

Thursday, June 14, 2018

  Actual Average Record
Temperature  
Mean Temperature 84 °F -  
Max Temperature 88 °F 88 °F 92 °F (2016)
Min Temperature 80 °F 77 °F 77 °F (2003)
Cooling Degree Days 19    
Growing Degree Days 34 (Base 50)    
Moisture  
Dew Point 73 °F    
Average Humidity 71    
Maximum Humidity 84    
Minimum Humidity 55    
Precipitation  
Precipitation 0.00 in 0.04 in - ()
Sea Level Pressure  
Sea Level Pressure 29.98 in    
Wind  
Wind Speed 16 mph ()    
Max Wind Speed 24 mph    
Max Gust Speed 36 mph    
Visibility 6.5 miles    
Events      
Averages and records for this station are not official NWS values.
T = Trace of Precipitation, MM = Missing Value Source: Averaged Metar Reports

Daily Weather History Graph

Daily Weather History Graph

Search for Another Location

Airport or City:

Astronomy

Jun. 14, 2018 Rise Set
Actual Time 6:11 AM AST 7:01 PM AST
Civil Twilight 5:47 AM AST 7:24 PM AST
Nautical Twilight 5:20 AM AST 7:52 PM AST
Astronomical Twilight 4:52 AM AST 8:19 PM AST
Moon 6:56 AM AST (6/14) 8:05 PM AST (6/14)
Length of Visible Light 13h 36m
Length of Day
12h 50m
New Moon, 1% of the Moon is Illuminated
Jun 14
New Moon
Jun 20
First Quarter
Jun 28
Full
Jul 6
Last Quarter
Jul 12
New

Hourly Weather History & Observations

Time (AST) Temp. Heat Index Dew Point Humidity Pressure Visibility Wind Dir Wind Speed Gust Speed Precip Events Conditions
12:00 AM 80.6 °F 86.2 °F 75.2 °F 84% 30.01 in 6.2 mi ESE 13.8 mph 25.3 mph N/A   Mostly Cloudy
12:49 AM 80.6 °F 86.2 °F 75.2 °F 84% 29.98 in 6.2 mi ESE 13.8 mph 25.3 mph N/A   Mostly Cloudy
1:00 AM 80.6 °F 85.4 °F 73.4 °F 79% 29.98 in 6.2 mi ESE 17.3 mph - N/A   Mostly Cloudy
1:33 AM 80.6 °F 85.4 °F 73.4 °F 79% 29.98 in 6.2 mi ESE 17.3 mph 28.8 mph N/A   Scattered Clouds
2:00 AM 80 °F - 74 °F 76% 29.98 in 7 mi ESE 19.6 mph - -   Haze
2:00 AM 80.6 °F 85.4 °F 73.4 °F 79% 29.98 in 6.2 mi ESE 19.6 mph - N/A   Mostly Cloudy
3:00 AM 80.6 °F 85.4 °F 73.4 °F 79% 29.95 in 6.2 mi ESE 17.3 mph - N/A   Unknown
3:25 AM 80.6 °F 85.4 °F 73.4 °F 79% 29.95 in 6.2 mi ESE 19.6 mph 31.1 mph N/A   Scattered Clouds
4:00 AM 80.6 °F 85.4 °F 73.4 °F 79% 29.95 in - ESE 18.4 mph 29.9 mph N/A   Unknown
5:00 AM 80 °F - 73 °F 75% 29.96 in 7 mi ESE 17.3 mph - -   Haze
5:00 AM 80.6 °F 85.4 °F 73.4 °F 79% 29.95 in 6.2 mi ESE 17.3 mph - N/A   Mostly Cloudy
5:15 AM 80.6 °F 85.4 °F 73.4 °F 79% 29.95 in 6.2 mi ESE 17.3 mph 28.8 mph N/A   Mostly Cloudy
6:00 AM 80.6 °F 85.4 °F 73.4 °F 79% 29.95 in 6.2 mi ESE 17.3 mph - N/A   Mostly Cloudy
6:15 AM 80.6 °F 85.4 °F 73.4 °F 79% 29.95 in 6.2 mi ESE 17.3 mph 28.8 mph N/A   Mostly Cloudy
7:00 AM 80.6 °F 85.4 °F 73.4 °F 79% 29.98 in 6.2 mi ESE 16.1 mph - N/A   Mostly Cloudy
8:00 AM 82 °F - 73 °F 67% 30.00 in 7 mi ESE 17.3 mph - -   Haze
8:00 AM 82.4 °F 88.2 °F 73.4 °F 74% 29.98 in 6.2 mi ESE 17.3 mph - N/A   Mostly Cloudy
8:18 AM 82.4 °F 87.2 °F 71.6 °F 70% 29.98 in 6.2 mi ESE 20.7 mph - N/A   Mostly Cloudy
8:38 AM 84.2 °F 90.9 °F 73.4 °F 70% 30.01 in 6.2 mi ESE 19.6 mph 32.2 mph N/A   Mostly Cloudy
9:00 AM 84.2 °F 90.9 °F 73.4 °F 70% 30.01 in 6.2 mi ESE 20.7 mph 33.4 mph N/A   Mostly Cloudy
10:00 AM 86.0 °F 91.8 °F 71.6 °F 62% 30.01 in 6.2 mi ESE 21.9 mph 35.7 mph N/A   Scattered Clouds
11:00 AM 86 °F - 72 °F 56% 30.02 in 7 mi East 21.9 mph - -   Haze
11:00 AM 86.0 °F 93.4 °F 73.4 °F 66% 30.01 in 6.2 mi East 21.9 mph - N/A   Scattered Clouds
11:15 AM 86.0 °F 91.8 °F 71.6 °F 62% 30.01 in 6.2 mi ESE 19.6 mph 35.7 mph N/A   Scattered Clouds
12:00 PM 87.8 °F 92.6 °F 69.8 °F 55% 30.01 in 6.2 mi ESE 24.2 mph 35.7 mph N/A   Unknown
1:00 PM 87.8 °F 93.8 °F 71.6 °F 58% 30.01 in 6.2 mi ESE 20.7 mph 32.2 mph N/A   Unknown
2:00 PM 87 °F - 73 °F 55% 29.98 in 7 mi East 18.4 mph - -   Haze
2:00 PM 86.0 °F 93.4 °F 73.4 °F 66% 29.98 in 6.2 mi East 18.4 mph - N/A   Partly Cloudy
2:26 PM 86.0 °F 93.4 °F 73.4 °F 66% 29.95 in 6.2 mi East 18.4 mph 29.9 mph N/A   Unknown
3:00 PM 86.0 °F 93.4 °F 73.4 °F 66% 29.95 in 6.2 mi East 19.6 mph - N/A   Unknown
3:07 PM - - - N/A% - - North - - N/A   Unknown
3:33 PM 87.8 °F 93.8 °F 71.6 °F 58% 29.95 in 6.2 mi East 18.4 mph - N/A   Unknown
3:49 PM 86.0 °F 91.8 °F 71.6 °F 62% 29.92 in 6.2 mi East 19.6 mph 31.1 mph N/A   Unknown
4:00 PM 86.0 °F 91.8 °F 71.6 °F 62% 29.95 in 6.2 mi ESE 19.6 mph 31.1 mph N/A   Unknown
5:00 PM 85 °F - 72 °F 58% 29.95 in 9 mi ESE 18.4 mph - -   Haze
5:00 PM 84.2 °F 89.6 °F 71.6 °F 66% 29.95 in 6.2 mi ESE 18.4 mph - N/A   Unknown
6:00 PM 84.2 °F 90.9 °F 73.4 °F 70% 29.95 in 6.2 mi East 12.7 mph - N/A   Unknown
7:00 PM 82.4 °F 87.2 °F 71.6 °F 70% 29.95 in 6.2 mi ESE 16.1 mph - N/A   Unknown
8:00 PM 81 °F - 73 °F 70% 29.98 in 9 mi East 12.7 mph - -   Haze
8:00 PM 80.6 °F 85.4 °F 73.4 °F 79% 29.98 in 6.2 mi East 12.7 mph - N/A   Unknown
8:56 PM 80.6 °F 85.4 °F 73.4 °F 79% 30.01 in 6.2 mi East 15.0 mph - N/A   Unknown
10:00 PM 80.6 °F 85.4 °F 73.4 °F 79% 30.01 in 6.2 mi East 11.5 mph - N/A   Unknown
11:00 PM 80 °F - 72 °F 71% 30.04 in 9 mi ESE 11.5 mph - -   Haze
11:00 PM 80.6 °F 84.6 °F 71.6 °F 74% 30.04 in 6.2 mi ESE 11.5 mph - N/A   Unknown